Location: Unspecified
(0.0000°N, 0.0000°E)
Time: 07:19:48
(UTC+00:00)

Tiros 1 despin weight - Pass Details

Date: 07 October 2023
Orbit: 583 x 627 km, 48.2° (Epoch: 05 December)

Event Time Altitude Azimuth Distance (km) Brightness Sun altitude
Rises 14:25:35 0° 241° (WSW) 2,908 ? 50.2°
Reaches altitude 10° 14:28:14 10° 254° (WSW) 2,000 ? 49.6°
Maximum altitude 14:32:00 25° 309° (NW) 1,275 ? 48.7°
Drops below altitude 10° 14:35:45 10° 4° (N) 1,988 ? 47.7°
Sets 14:38:24 0° 18° (NNE) 2,888 ? 47.1°
